[[{"header":{"parameterUnit":"m.s-1","parameterCategory":1,"la1":30.2991,"la2":30.254,"lo1":-89.0895,"lo2":-89.0444,"dy":0.0017,"dx":0.0017,"nx":28,"ny":28,"refTime":"2024-12-24T09:00:00:Z","depth":0,"parameterNumber":2,"parameterNumberName":"U-component_of_WINDS"},"data":[0,0,0,0,0,0,0,0,0,0,0,0,0,0,0,0,0,0,0,0,0,0,0,0,0,0,0,0,0,0,0,0,0,0,0,0,0,0,0,0,0,0,0,0,0,0,0,0,0,0,0,0,0,0,0,0,0,0,-4.0164,-4.0165,0,-4.0231,-4.0232,-4.0232,-4.0097,-4.0093,-4.0088,-4.0084,-4.0156,-4.0162,-4.0168,0,0,0,0,0,0,0,0,0,0,0,0,0,-3.9921,-3.9926,-4.0164,-4.0165,-4.0165,-4.0231,-4.0232,-4.0233,-4.0098,-4.0093,-4.0087,-4.0082,-4.0154,-4.0161,-4.0168,0,0,0,0,0,0,0,0,0,0,0,0,0,-4.0012,-3.9928,-4.0164,-4.0106,-4.0102,-4.0231,-4.0232,-4.0233,-4.0099,-4.0093,-4.0086,-4.008,-4.0152,-4.016,-4.0169,-4.0358,0,0,-4.0197,-4.0201,0,0,0,0,0,0,0,0,-4.0007,-4.0021,-4.0114,-4.011,-4.0105,-4.0149,-4.0172,-4.0275,-4.0101,-4.01,-4.0084,-4.0076,-4.0159,-4.0167,-4.0194,-4.0362,-4.0365,-4.0198,-4.0203,-4.0207,-4.021,0,0,0,0,0,0,0,-4.0001,-4.0017,-4.019,-4.0115,-4.011,-4.0078,-4.0083,-4.0191,-4.0166,-4.01,-4.009,-4.01,-4.0156,-4.0186,-4.0195,-4.0366,-4.0198,-4.0206,-4.0211,-4.0215,-4.0691,-4.0698,0,0,0,0,0,0,-4.0001,-4.0013,-4.0188,-4.0192,-4.0039,-4.0087,-4.0093,-4.0142,-4.0165,-4.0162,-4.0105,-4.0093,-4.0174,-4.0185,-4.0197,-4.042,-4.0207,-4.0216,-4.0221,-4.0684,-4.0693,-4.0701,0,0,0,0,0,0,-3.9996,-4.0018,-4.0185,-4.01,-4.0119,-4.0099,-4.0154,-4.0147,-4.0177,-4.0169,-4.0164,-4.0141,-4.0169,-4.0184,-4.0319,-4.0421,-4.022,-4.0228,-4.0676,-4.0687,-4.0697,-4.0868,0,0,0,0,0,0,-3.999,-4.0017,-4.0088,-4.0102,-4.0124,-4.0306,-4.016,-4.0153,-4.0192,-4.0177,-4.0201,-4.0199,-4.0165,-4.0306,-4.0328,-4.043,-4.0235,-4.0666,-4.0681,-4.0693,-4.0853,-4.0883,-4.0909,0,0,0,0,0,-3.9982,-4.0135,-4.0093,-4.0115,-4.0212,-4.0312,-4.0325,-4.0282,-4.0201,-4.0273,-4.0268,-4.0198,-4.0406,-4.0321,-4.0345,-4.0451,-4.066,-4.0677,-4.0692,-4.0841,-4.0877,-4.0908,0,0,0,0,0,0,-4.0134,-4.0135,-4.0089,-4.0251,-4.0282,-4.0289,-4.0379,-4.0322,-4.0378,-4.0362,-4.0307,-4.0314,-4.046,-4.0468,-4.0374,-4.0634,-4.0519,-4.0541,-4.0624,-4.0659,-4.0686,-4.0682,-4.0243,0,0,0,0,0,-4.0187,-4.0267,-4.0264,-4.0407,-4.0425,-4.04,-4.0441,-4.0406,-4.0437,-4.045,-4.0454,-4.0488,-4.056,-4.061,-4.0676,-4.0853,-4.0857,-4.0937,-4.0965,-4.0988,-4.1008,-4.1103,-4.1139,-4.0754,-4.0754,-4.0754,0,0,-4.0296,-4.0306,-4.0361,-4.0438,-4.0458,-4.0543,-4.0412,-4.0507,-4.057,-4.0464,-4.0592,-4.0597,-4.063,-4.0787,-4.0856,-4.0798,-4.1115,-4.1009,-4.1027,-4.1035,-4.1123,-4.1159,-4.1192,-4.0765,-4.0763,-4.0761,0,0,-4.0538,-4.0554,-4.0675,-4.0698,-4.073,-4.0711,-4.0741,-4.0756,-4.0755,-4.0881,-4.0804,-4.0878,-4.1004,-4.1032,-4.1062,-4.1314,-4.1253,-4.1337,-4.1484,-4.1577,-4.1607,-4.1634,-4.1725,-4.1758,-4.1357,-4.1357,-4.1358,0,-4.0671,-4.0795,-4.0745,-4.0846,-4.0882,-4.0789,-4.0911,-4.0936,-4.0989,-4.1016,-4.095,-4.1107,-4.1123,-4.1285,-4.1346,-4.1374,-4.1406,-4.1335,-4.1607,-4.1633,-4.1657,-4.1743,-4.1777,-4.1368,-4.1366,-4.1365,-4.1364,0,-4.0956,-4.1044,-4.1138,-4.119,-4.1237,-4.1348,-4.1315,-4.1369,-4.1329,-4.1318,-4.1448,-4.1464,-4.1532,-4.1567,-4.153,-4.1725,-4.1688,-4.1615,-4.1499,-4.1705,-4.1785,-4.1817,-4.1382,-4.1379,-4.1376,-4.1373,0,0,-4.1299,-4.132,-4.1356,-4.1378,-4.1406,-4.1473,-4.158,-4.1646,-4.1693,-4.1732,-4.1822,-4.193,-4.1863,-4.1898,-4.1862,-4.1944,-4.2143,-4.1861,-4.1861,-4.1914,-4.236,-4.2415,-4.2454,-4.2102,-4.2108,-4.2113,-4.2357,0,-4.154,-4.1723,-4.1681,-4.1863,-4.1943,-4.1855,-4.1948,-4.1976,-4.1969,-4.2036,-4.2028,-4.2106,-4.2011,-4.2032,-4.2108,-4.2103,-4.2232,-4.2085,-4.2186,-4.219,-4.2181,-4.2496,-4.2554,-4.2785,-4.2388,-4.2393,-4.2397,0,-4.1846,-4.1896,-4.2086,-4.21,-4.2132,-4.2217,-4.2274,-4.2339,-4.2369,-4.2357,-4.2396,-4.2344,-4.2451,-4.2332,-4.2479,-4.238,-4.2418,-4.2422,-4.243,-4.2439,-4.2307,-4.2515,-4.2857,-4.2892,-4.2446,-4.2442,-4.2438,0,-4.2078,-4.2193,-4.2321,-4.2343,-4.2362,-4.2424,-4.2436,-4.2458,-4.25,-4.255,-4.2577,-4.2638,-4.2673,-4.2722,-4.2689,-4.2605,-4.2842,-4.272,-4.2837,-4.2838,-4.2892,-4.2889,-4.3247,-4.2915,-4.2914,-4.2914,-4.2913,0,-4.2353,-4.2473,-4.2425,-4.2505,-4.2636,-4.2586,-4.2718,-4.2719,-4.274,-4.2818,-4.2745,-4.2821,-4.2771,-4.2843,-4.2817,-4.2943,-4.2959,-4.2954,-4.2946,-4.2961,-4.2962,-4.2987,-4.2971,-4.2923,-4.2921,-4.2919,-4.2917,0,-4.2635,-4.2608,-4.2742,-4.2749,-4.2754,-4.2851,-4.2857,-4.2931,-4.2917,-4.3017,-4.3038,-4.3017,-4.3098,-4.3069,-4.3155,-4.3137,-4.3298,-4.3269,-4.3289,-4.3282,-4.34,-4.339,-4.3787,-4.3837,-4.3472,-4.3476,-4.3479,0,-4.2813,-4.2903,-4.2919,-4.2966,-4.2982,-4.3059,-4.3101,-4.3054,-4.3101,-4.3142,-4.3211,-4.3284,-4.3341,-4.3473,-4.3467,-4.3532,-4.3505,-4.3639,-4.3514,-4.3527,-4.3508,-4.3504,-4.3513,-4.3665,-4.3669,-4.3673,-4.3675,0,-4.3132,-4.3113,-4.3176,-4.3236,-4.3288,-4.3332,-4.337,-4.3412,-4.3368,-4.3425,-4.3505,-4.3549,-4.3636,-4.3711,-4.3769,-4.3781,-4.3723,-4.3714,-4.3745,-4.3763,-4.3771,-4.3769,-4.3358,-4.3706,-4.3703,-4.3701,-4.3699,-4.3698,-4.3368,-4.3444,-4.3467,-4.354,-4.3563,-4.36,-4.367,-4.3664,-4.373,-4.3797,-4.3765,-4.3859,-4.3886,-4.3958,-4.3979,-4.4052,-4.4,-4.4044,-4.4055,-4.4067,-4.4083,-4.3758,-4.4062,-4.4061,-4.406,-4.406,-4.4059,0,-4.3684,-4.3694,-4.3761,-4.3816,-4.3874,-4.3811,-4.3849,-4.3902,-4.3985,-4.4014,-4.4071,-4.4164,-4.4235,-4.4234,-4.43,-4.4359,-4.4334,-4.4378,-4.4374,-4.4378,-4.4125,-4.4093,-4.4398,-4.4398,-4.4398,-4.4398,-4.4398,-4.4398,-4.3855,-4.398,-4.3965,-4.4101,-4.411,-4.4201,-4.4228,-4.4262,-4.4285,-4.4392,-4.4451,-4.4448,-4.4466,-4.4533,-4.4596,-4.4593,-4.4622,-4.4677,-4.4665,-4.443,-4.4396,-4.4364,-4.4333,-4.4684,-4.4684,-4.4912,-4.4914,-4.4916]},{"header":{"parameterUnit":"m.s-1","parameterCategory":1,"la1":30.2991,"la2":30.254,"lo1":-89.0895,"lo2":-89.0444,"dy":0.0017,"dx":0.0017,"nx":28,"ny":28,"refTime":"2024-12-24T09:00:00:Z","depth":0,"parameterNumber":3,"parameterNumberName":"V-component_of_WINDS"},"data":[0,0,0,0,0,0,0,0,0,0,0,0,0,0,0,0,0,0,0,0,0,0,0,0,0,0,0,0,0,0,0,0,0,0,0,0,0,0,0,0,0,0,0,0,0,0,0,0,0,0,0,0,0,0,0,0,0,0,-1.975,-1.975,0,-1.9757,-1.9757,-1.9758,-1.9736,-1.9735,-1.9735,-1.9734,-1.9741,-1.9742,-1.9743,0,0,0,0,0,0,0,0,0,0,0,0,0,-1.9716,-1.9717,-1.975,-1.975,-1.975,-1.9757,-1.9757,-1.9758,-1.9736,-1.9735,-1.9735,-1.9734,-1.9741,-1.9742,-1.9743,0,0,0,0,0,0,0,0,0,0,0,0,0,-1.9728,-1.9717,-1.975,-1.974,-1.974,-1.9757,-1.9757,-1.9758,-1.9736,-1.9735,-1.9734,-1.9733,-1.9741,-1.9742,-1.9743,-1.977,0,0,-1.9747,-1.9747,0,0,0,0,0,0,0,0,-1.9727,-1.9729,-1.9742,-1.9741,-1.974,-1.9745,-1.9748,-1.9762,-1.9737,-1.9738,-1.9734,-1.9733,-1.9743,-1.9744,-1.9748,-1.9771,-1.9771,-1.9747,-1.9748,-1.9748,-1.9749,0,0,0,0,0,0,0,-1.9726,-1.9729,-1.9753,-1.9742,-1.9741,-1.9735,-1.9736,-1.9751,-1.9746,-1.9737,-1.9736,-1.9737,-1.9743,-1.9747,-1.9748,-1.9771,-1.9747,-1.9748,-1.9749,-1.9749,-1.9815,-1.9816,0,0,0,0,0,0,-1.9727,-1.9728,-1.9753,-1.9753,-1.9731,-1.9737,-1.9737,-1.9744,-1.9746,-1.9745,-1.9738,-1.9736,-1.9745,-1.9746,-1.9748,-1.9779,-1.9748,-1.9749,-1.975,-1.9814,-1.9815,-1.9816,0,0,0,0,0,0,-1.9726,-1.9729,-1.9752,-1.974,-1.9743,-1.9738,-1.9746,-1.9745,-1.9749,-1.9746,-1.9745,-1.9743,-1.9744,-1.9746,-1.9765,-1.9779,-1.975,-1.9751,-1.9813,-1.9814,-1.9816,-1.9841,0,0,0,0,0,0,-1.9725,-1.9729,-1.974,-1.9741,-1.9743,-1.9769,-1.9747,-1.9746,-1.9751,-1.9749,-1.975,-1.975,-1.9744,-1.9763,-1.9766,-1.978,-1.9752,-1.9811,-1.9813,-1.9815,-1.9839,-1.9843,-1.9847,0,0,0,0,0,-1.9724,-1.9747,-1.9741,-1.9744,-1.9757,-1.977,-1.9772,-1.9765,-1.9752,-1.9763,-1.9761,-1.975,-1.9777,-1.9765,-1.9768,-1.9783,-1.981,-1.9813,-1.9815,-1.9837,-1.9842,-1.9847,0,0,0,0,0,0,-1.9749,-1.9747,-1.974,-1.9764,-1.9767,-1.9767,-1.978,-1.9771,-1.9778,-1.9775,-1.9766,-1.9766,-1.9786,-1.9786,-1.9773,-1.9808,-1.9791,-1.9794,-1.9807,-1.9812,-1.9816,-1.9815,-1.9753,0,0,0,0,0,-1.9757,-1.9769,-1.9766,-1.9788,-1.979,-1.9784,-1.979,-1.9784,-1.9787,-1.9788,-1.9788,-1.9791,-1.98,-1.9806,-1.9814,-1.9839,-1.9838,-1.985,-1.9854,-1.9858,-1.986,-1.9872,-1.9877,-1.9824,-1.9824,-1.9824,0,0,-1.9775,-1.9775,-1.9783,-1.9793,-1.9795,-1.9806,-1.9786,-1.9799,-1.9807,-1.979,-1.9807,-1.9807,-1.981,-1.9831,-1.984,-1.9832,-1.9875,-1.986,-1.9863,-1.9864,-1.9874,-1.9879,-1.9884,-1.9825,-1.9825,-1.9825,0,0,-1.9812,-1.9814,-1.9831,-1.9833,-1.9835,-1.9831,-1.9835,-1.9836,-1.9835,-1.9851,-1.9839,-1.9848,-1.9864,-1.9866,-1.9869,-1.9905,-1.9895,-1.9908,-1.9929,-1.994,-1.9944,-1.9948,-1.9959,-1.9964,-1.991,-1.991,-1.991,0,-1.9833,-1.9849,-1.9841,-1.9854,-1.9858,-1.9843,-1.986,-1.9862,-1.9868,-1.987,-1.9861,-1.988,-1.9881,-1.9901,-1.991,-1.9913,-1.9917,-1.9907,-1.9944,-1.9948,-1.9951,-1.9962,-1.9966,-1.9912,-1.9912,-1.9912,-1.9911,0,-1.9874,-1.9886,-1.9899,-1.9904,-1.991,-1.9925,-1.9918,-1.9925,-1.9917,-1.9914,-1.9931,-1.9931,-1.9938,-1.9943,-1.9937,-1.9962,-1.9956,-1.9946,-1.9929,-1.9958,-1.9968,-1.9972,-1.9914,-1.9914,-1.9913,-1.9913,0,0,-1.9928,-1.9927,-1.9932,-1.9933,-1.9934,-1.9943,-1.9957,-1.9963,-1.9969,-1.9973,-1.9983,-1.9996,-1.9986,-1.9989,-1.9983,-1.9993,-2.0019,-1.998,-1.998,-1.9987,-2.0046,-2.0054,-2.0059,-2.0013,-2.0013,-2.0014,-2.0045,0,-1.9964,-1.9987,-1.9979,-2.0003,-2.0012,-1.9997,-2.0009,-2.001,-2.0007,-2.0015,-2.0011,-2.002,-2.0006,-2.0008,-2.0017,-2.0014,-2.0031,-2.0012,-2.0022,-2.0022,-2.0021,-2.0064,-2.0073,-2.0103,-2.0049,-2.005,-2.0051,0,-2.0009,-2.0013,-2.0038,-2.0036,-2.0039,-2.005,-2.0055,-2.0062,-2.0063,-2.006,-2.0063,-2.0054,-2.0067,-2.005,-2.0066,-2.0053,-2.0057,-2.0055,-2.0056,-2.0057,-2.0038,-2.0065,-2.0112,-2.0116,-2.0057,-2.0056,-2.0056,0,-2.0044,-2.0057,-2.0072,-2.0074,-2.0072,-2.008,-2.0079,-2.0079,-2.0083,-2.0087,-2.0089,-2.0095,-2.0098,-2.0102,-2.0094,-2.0083,-2.0111,-2.0094,-2.0108,-2.0109,-2.0115,-2.0115,-2.0163,-2.0118,-2.0118,-2.0118,-2.0118,0,-2.0084,-2.01,-2.0088,-2.0098,-2.0114,-2.0104,-2.012,-2.0118,-2.0117,-2.0126,-2.0113,-2.0121,-2.0111,-2.0118,-2.0112,-2.0126,-2.0127,-2.0125,-2.0123,-2.0125,-2.0126,-2.0127,-2.0125,-2.0119,-2.0119,-2.0119,-2.0119,0,-2.0127,-2.012,-2.0136,-2.0132,-2.0131,-2.0143,-2.014,-2.0148,-2.0144,-2.0154,-2.0156,-2.0149,-2.0157,-2.0149,-2.0156,-2.0152,-2.017,-2.0166,-2.017,-2.0168,-2.0183,-2.0181,-2.0233,-2.0239,-2.0192,-2.0192,-2.0193,0,-2.0153,-2.0164,-2.0161,-2.0166,-2.0166,-2.0173,-2.0177,-2.0167,-2.0171,-2.0172,-2.018,-2.0186,-2.019,-2.0202,-2.0198,-2.0203,-2.0198,-2.0215,-2.0198,-2.02,-2.0197,-2.0196,-2.0197,-2.0219,-2.0219,-2.022,-2.022,0,-2.02,-2.0195,-2.0201,-2.0204,-2.0209,-2.0212,-2.0213,-2.0218,-2.0207,-2.0212,-2.0219,-2.0222,-2.0229,-2.0235,-2.0238,-2.0237,-2.0227,-2.0226,-2.0229,-2.0232,-2.0233,-2.0232,-2.0179,-2.0225,-2.0224,-2.0224,-2.0224,-2.0223,-2.0234,-2.0242,-2.0241,-2.0247,-2.0247,-2.0249,-2.0256,-2.0251,-2.0257,-2.0261,-2.0255,-2.0263,-2.0262,-2.0265,-2.0265,-2.0271,-2.0264,-2.0269,-2.027,-2.0272,-2.0273,-2.0233,-2.0272,-2.0272,-2.0272,-2.0272,-2.0272,0,-2.0279,-2.0277,-2.0282,-2.0285,-2.0289,-2.0278,-2.0279,-2.0284,-2.0291,-2.0291,-2.0295,-2.0302,-2.0307,-2.0303,-2.0307,-2.0312,-2.0308,-2.0314,-2.0313,-2.0313,-2.028,-2.0277,-2.0317,-2.0317,-2.0317,-2.0317,-2.0317,-2.0317,-2.0303,-2.0316,-2.0311,-2.0324,-2.0321,-2.0329,-2.033,-2.0331,-2.0331,-2.0339,-2.0343,-2.034,-2.0337,-2.0341,-2.0345,-2.0343,-2.0345,-2.0353,-2.0349,-2.032,-2.0315,-2.0311,-2.0307,-2.0353,-2.0353,-2.0381,-2.0381,-2.0381]}]]